Regional Weather Roundup
Issued by NWS Green Bay, WI

Home | Current Version | Previous Version | Text Only | Print | Product List | Glossary On
Versions: 1 2 3 4 5 6 7 8 9 10 11 12 13 14 15 16 17 18 19 20 21 22 23 24 25 26 27 28 29 30 31 32 33 34 35 36 37 38 39 40 41 42 43 44 45 46 47 48 49 50
165
ASUS43 KGRB 300100
RWRGRB

NORTH-CENTRAL AND NORTHEAST WISCONSIN REGIONAL WEATHER ROUNDUP
NATIONAL WEATHER SERVICE GREEN BAY WI
800 PM CDT SAT APR 29 2017

WIZ005-009-010>012-018-019-300200-
NORTH CENTRAL WISCONSIN

CITY           SKY/WX    TMP DP  RH WIND       PRES   REMARKS
IRONWOOD       CLOUDY    38  24  57 CALM      30.28F
MANITOWISH WTR NOT AVBL
ARBOR VITAE    NOT AVBL
EAGLE RIVER    NOT AVBL
LAND O LAKES   NOT AVBL
RHINELANDER    CLOUDY    47  23  38 E8        30.21F
PHILLIPS       PTCLDY    46  23  40 NE10G20   30.21R
ANTIGO         NOT AVBL
TOMAHAWK       NOT AVBL
MERRILL        CLOUDY    47  26  42 E10       30.19R
$$

WIZ013-073-300200-
NORTHEAST WISCONSIN

CITY           SKY/WX    TMP DP  RH WIND       PRES   REMARKS
IRON MOUNTAIN  MOCLDY    44  16  32 NE10G22   30.24S
MARINETTE      NOT AVBL
$$

WIZ017-030-035>037-045-300200-
CENTRAL WISCONSIN

CITY           SKY/WX    TMP DP  RH WIND       PRES   REMARKS
MEDFORD        NOT AVBL
WAUSAU         MOCLDY    47  26  44 E13G21    30.17S
MOSINEE        CLOUDY    45  30  57 E15       30.19S
MARSHFIELD     CLOUDY    47  31  53 SE9       30.19R
WISC RAPIDS    CLOUDY    45  32  60 E12G17    30.20R
STEVENS POINT  NOT AVBL
WAUPACA        CLOUDY    47  28  48 E12G17    30.21F
SHAWANO        CLOUDY    47  29  51 E10       30.25S
CLINTONVILLE   CLOUDY    45  27  49 E14G20    30.23F
WAUTOMA        CLOUDY    45  30  55 E16G26    30.17F
$$

WIZ038-039-048-051-300200-
FOX VALLEY

CITY           SKY/WX    TMP DP  RH WIND       PRES   REMARKS
NWS GREEN BAY  CLOUDY    46  30  53 E12G23    30.24F
APPLETON       MOCLDY    45  27  49 E13G23    30.21F
OSHKOSH        CLOUDY    44  27  51 E16G25    30.20F
FOND DU LAC    CLOUDY    43  25  49 E14       30.21F
$$

WIZ022-050-052-300200-
EAST CENTRAL WISCONSIN

CITY           SKY/WX    TMP DP  RH WIND       PRES   REMARKS
EPHRAIM        NOT AVBL
WASHINGTON ISL FAIR      42  28  56 NE8       30.28R
STURGEON BAY   CLOUDY    44  28  53 NE7       30.28R
MANITOWOC      NOT AVBL
SHEBOYGAN      LGT RAIN  40  34  79 NE15      30.22F
$$

LMZ563-521-522-541>543-300200-
LAKESHORE

STATION/POSITION TIME  TEMP    WIND        PRES    VSBY  WAVE
                       AIR SEA DIR/SP/G                  HT/PER
                 (UTC) (F)     (DEG/KT/KT) (MB)    (MI)  (FT/S)
SHEBOYGAN LKSHOR 0000   40      30/ 15/ 17 1025.2R
KEWAUNEE LKSHORE 0030   41      40/ 10/ 13 1024.4F
NORTHPORT PIER   0040   45      30/ 10/ 15 1025.4R
N MID LAKE BUOY  2350   41 37   20/ 12/ 12 1025.8F         1
CHAMBERS ISLAND  0040   43      20/ 15/ 17 1024.7R
MENOMINEE LKSHOR 0030   44      40/ 14/ 16 1024.2R
$$




USA.gov is the U.S. government's official web portal to all federal, state and local government web resources and services.